COSMOS 1275 DEB, 42217

Orbit data source: Space-Track

COSMOS 1275 DEB, 42217 is space debris in LEO originally from a launch on Thu, 04 Jun 1981 UTC launched from the Plesetsk Missile And Space Complex (PKMTR). Debris objects in space refer to the collection of defunct objects orbiting the Earth. Examples of debris include non-operational satellites, rocket bodies, and fragments generated from explosions, collisions, or faulty payload assembly.

Loading next visibility...
Identifier
42217, 1981-053UH
Orbit
LEO
Country
Flag of CISCIS
Related business
Manufacturer
Unknown
Mission
Spacecraft
Bus & Motor
Unknown
Mass
Unknown
Launch date (UTC)
1981-06-04 (44 years ago)
Launch vehicle
Unknown
Launch site
Plesetsk Missile And Space Complex (PKMTR)
Object type
Payload
Rocket body
Debris
Shape & HBR
Unknown shape, 0.1 m
Radar Cross Section
Small (<0.1 m²)

Expand to show TLE details & history
Last TLE update: 2 days ago

TLE from 2 days ago
0 COSMOS 1275 DEB
1 42217U 81053UH  25285.03325317  .00001194  00000-0  12777-2 0  9990
2 42217  83.0354 188.8224 0116851 209.3777 167.5796 13.70142826593159
Epoch: 2025-10-12T00:47Z
TLE epoch observation values (Epoch: 2025-10-12T00:47:53.073Z)
Latitude
17.09645°
Longitude
158.13728°
Altitude
1,085.594 km
Speed
7.269 km/s
True Right ascension
12h 43m 51s
True Declination
17° 00' 15"
Sunlit
Object was in daylight at epoch
Visualization orbit readout
Latitude
Unknown
Longitude
Unknown
Altitude
Unknown
Speed
Unknown
Apparent Right ascension
Unknown
Apparent Declination
Unknown
Sunlit
N/A
Visualization observer readout
Local Sidereal Time
21:11:32
Azimuth
Unknown
Elevation
Unknown
Doppler factor
Unknown
Orbital elements
Apogee altitude
1,082.38 km
Perigee altitude
910.04 km
Semi-major axis
7,374.347 km
Eccentricity
0.01169
Inclination
83.0354°
RAAN
188.8224°
Arg. of periapsis
209.3777°
True anomaly
167.86355°
Mean anomaly
167.5796°
Eccentric anomaly
167.72197°
Mean motion
3.42735 °/min
Orbital period
105.04 mins
BSTAR
0.0012777
Loading maneuver chart data...
Computing Atmospheric mass density...
Loading historical data...
Loading historical data...
Loading historical data...
Loading historical data...
Loading historical data...
Loading historical data...
Loading historical data...

Documentation

Showing up to 5 results
|